Location: Chuathbaluk
(61.5726°N, 159.2454°W)
Time: 17:38:56
(UTC+00:00)

ZACube-1 - Pass Details

Date: 24 January 2021
Orbit: 583 x 666 km, 97.6° (Epoch: 04 March)

Event Time Altitude Azimuth Distance (km) Brightness Sun altitude
Rises 16:05:03 0° 16° (NNE) 3,026 ? -21.9°
Reaches altitude 10° 16:07:19 10° 18° (NNE) 2,107 ? -21.6°
Maximum altitude 16:11:56 77° 105° (ESE) 689 ? -21.1°
Drops below altitude 10° 16:16:29 10° 192° (SSW) 2,068 ? -20.5°
Sets 16:18:40 0° 194° (SSW) 2,966 ? -20.3°
